Flag for Poland Weather for the Past 2 Weeks in Lidzbark Warmiński, Poland

Now
36 °F

Chilly.


Feels Like: 32 °F
Forecast: 32 / 38 °F
Wind: 5 mph from Northwest

Location: Ketrzyn

Current Time: Feb 11, 2016 at 6:38:51 PM

Latest Report: Feb 11, 2016 at 6:00 PM


Visibility: 8 mi

Pressure: 29.41 "Hg

Humidity: 84%

Dew point: 32 °F

Location of Lidzbark WarmińskiLocation

Historic Weather in Lidzbark Warmiński — Graph

°F

Lidzbark Warmiński Temperature Yesterday

Maximum temperature yesterday: 46 °F (at 11:00 AM)
Minimum temperature yesterday: 35 °F (at 9:00 PM)
Average temperature yesterday: 43 °F

High & Low Weather Summary for the Past Weeks

 TemperatureHumidityPressure
High48 °F (Feb 7, 2:00 PM)97% (Feb 11, 4:00 AM)30.16 "Hg (Feb 11, 4:00 AM)
Low30 °F (Feb 5, 7:00 AM)55% (Feb 3, 2:00 PM)29.21 "Hg (Feb 10, 4:00 AM)
Average39 °F80%29.70 "Hg
* Reported Jan 27 5:00 PM — Feb 11 5:00 PM, Lidzbark Warmiński, Weather by CustomWeather, © 2016

Note: Actual official high and low records may vary slightly from our data, if they occured in-between our weather recording intervals... More about our weather records

Advertising

Lidzbark Warmiński Weather History for the Previous 24 Hours

 ConditionsComfort  
Time TempWeatherWind HumidityBarometerVisibility
5:00 PM
Thu, Feb 11
37 °FChilly.3 mph80%29.41 "Hg11 mi
4:00 PM37 °FChilly.5 mph83%29.38 "Hg11 mi
3:00 PM37 °FChilly.2 mph88%29.38 "Hg7 mi
2:00 PM36 °FChilly.3 mph92%29.35 "Hg5 mi
1:00 PM36 °FFog.3 mph94%29.35 "Hg4 mi
12:00 PM35 °FDrizzle. Cloudy.3 mph94%29.35 "Hg3 mi
11:00 AM35 °FLight rain. Cloudy.5 mph94%29.35 "Hg3 mi
10:00 AM34 °FLight rain. Cloudy.2 mph96%29.32 "Hg4 mi
9:00 AM33 °FSnow flurries. Cloudy.2 mph97%29.32 "Hg2 mi
8:00 AM33 °FLight snow. Cloudy.3 mph97%29.32 "Hg1 mi
7:00 AM32 °FLight snow. Overcast.3 mph97%29.29 "Hg1 mi
5:00 AM33 °FLight snow. Overcast.3 mph97%29.29 "Hg1 mi
4:00 AM32 °FLight snow. Overcast.3 mph97%29.29 "Hg1 mi
9:00 PM
Wed, Feb 10
35 °FRain. Overcast.5 mph93%29.29 "Hg2 mi
8:00 PM36 °FRain. Overcast.3 mph92%29.29 "Hg2 mi
7:00 PM38 °FRain. Overcast.3 mph91%29.29 "Hg1 mi
6:00 PM40 °FLight rain. Overcast.3 mph80%29.29 "Hg4 mi
Weather by CustomWeather, © 2016

See weather overviewHow to use our weather pages